Home   Weather   Papeete   Past weeks
Flag for French Polynesia

Past Weather in Papeete, Tahiti, French Polynesia — Yesterday and Last 2 Weeks

Now
73 °F

Passing clouds.


Feels Like: 76 °F
Forecast: 81 / 71 °F
Wind: 2 mph from North

Location: Tahiti-Faaa

Current Time: Jun 6, 2020 at 8:00:47 am

Latest Report: Jun 6, 2020 at 7:30 am


Visibility: N/A

Pressure: 29.92 "Hg

Humidity: 65%

Dew Point: 61 °F

Location of PapeeteLocation

Past Weather in Papeete — Graph

°F

Papeete Temperature Yesterday

Maximum temperature yesterday: 81 °F (at 10:30 am)
Minimum temperature yesterday: 73 °F (at 3:30 am)
Average temperature yesterday: 77 °F

High & Low Weather Summary for the Past Weeks

 TemperatureHumidityPressure
High88 °F (May 22, 2:30 pm)94% (May 26, 5:00 pm)30.12 "Hg (May 26, 5:00 pm)
Low70 °F (Jun 4, 12:00 am)45% (Jun 5, 12:00 pm)29.71 "Hg (Jun 3, 1:30 pm)
Average80 °F74%29.95 "Hg
* Reported May 22 7:00 am — Jun 6 7:00 am, Papeete. Weather by CustomWeather, © 2020

Note: Actual official high and low records may vary slightly from our data, if they occured in-between our weather recording intervals... More about our weather records

Papeete Weather History for the Previous 24 Hours

Scroll right to see more
 ConditionsComfort  
Time TempWeatherWind HumidityBarometerVisibility
7:00 am
Sat, Jun 6
70 °FPassing clouds.5 mph73%29.89 "HgN/A
6:30 am70 °FScattered clouds.2 mph73%29.89 "HgN/A
6:00 am70 °FPassing clouds.5 mph69%29.86 "HgN/A
5:30 am70 °FPassing clouds.6 mph69%29.86 "HgN/A
5:00 am70 °FPassing clouds.6 mph73%29.86 "HgN/A
4:30 am72 °FPassing clouds.6 mph69%29.86 "HgN/A
4:00 am72 °FPassing clouds.2 mph69%29.86 "HgN/A
3:30 am72 °FPassing clouds.5 mph69%29.83 "HgN/A
3:00 am72 °FPassing clouds.13 mph73%29.86 "HgN/A
2:30 am72 °FPassing clouds.12 mph73%29.86 "HgN/A
2:00 am73 °FPassing clouds.7 mph69%29.86 "HgN/A
1:30 am72 °FPassing clouds.3 mph69%29.86 "HgN/A
1:00 am72 °FPassing clouds.No wind65%29.86 "HgN/A
12:30 am72 °FPassing clouds.2 mph65%29.86 "HgN/A
12:00 am73 °FPassing clouds.5 mph61%29.86 "HgN/A
11:30 pm
Fri, Jun 5
73 °FPassing clouds.5 mph65%29.86 "HgN/A
11:00 pm73 °FPassing clouds.6 mph61%29.86 "HgN/A
10:30 pm73 °FPassing clouds.5 mph61%29.86 "HgN/A
10:00 pm73 °FPassing clouds.5 mph61%29.86 "HgN/A
9:30 pm73 °FPassing clouds.5 mph61%29.86 "HgN/A
9:00 pm73 °FPassing clouds.6 mph61%29.86 "HgN/A
8:30 pm73 °FPassing clouds.6 mph57%29.86 "HgN/A
8:00 pm75 °FPassing clouds.5 mph54%29.83 "HgN/A
7:30 pm75 °FPassing clouds.6 mph54%29.83 "HgN/A
7:00 pm75 °FPassing clouds.9 mph57%29.83 "HgN/A
6:30 pm75 °FPassing clouds.12 mph57%29.80 "HgN/A
6:00 pm77 °FPassing clouds.15 mph57%29.80 "HgN/A
5:30 pm77 °FPassing clouds.16 mph57%29.80 "HgN/A
5:00 pm79 °FScattered clouds.15 mph51%29.77 "HgN/A
4:30 pm79 °FPassing clouds.16 mph54%29.77 "HgN/A
4:00 pm79 °FPassing clouds.17 mph54%29.77 "HgN/A
3:30 pm81 °FPassing clouds.16 mph48%29.77 "HgN/A
3:00 pm81 °FPassing clouds.16 mph48%29.77 "HgN/A
2:30 pm81 °FScattered clouds.16 mph51%29.77 "HgN/A
2:00 pm81 °FPartly sunny.16 mph51%29.77 "HgN/A
1:30 pm81 °FPartly sunny.17 mph48%29.80 "HgN/A
1:00 pm81 °FPartly sunny.17 mph45%29.80 "HgN/A
12:30 pm81 °FPartly sunny.17 mph45%29.80 "HgN/A
12:00 pm81 °FPartly sunny.16 mph45%29.83 "HgN/A
11:30 am81 °FPartly sunny.18 mph51%29.83 "HgN/A
11:00 am81 °FPartly sunny.18 mph54%29.83 "HgN/A
10:30 am81 °FPartly sunny.20 mph51%29.83 "HgN/A
10:00 am79 °FPartly sunny.18 mph61%29.86 "HgN/A
9:00 am79 °FPartly sunny.13 mph58%29.86 "HgN/A
8:30 am77 °FPartly sunny.12 mph61%29.83 "HgN/A
8:00 am75 °FPartly sunny.12 mph65%29.83 "HgN/A
Weather by CustomWeather, © 2020

See weather overview

Advertising